map of OVB home
Great Circle Mapper logo
OVB - Airport
Location
City:  Novosibirsk, Novosibirskaya, Russian Federation (Russia)
Name:Tolmachevo International Airport
ICAO / IATA:UNNT / OVB

Details
Type:Airport (Aerodrome, Airfield)
Use:Public/Civil, International (customs port of entry)
Latitude:5500'45"N (55.012622)
Longitude:8239'02"E (82.650656)
Datum:WGS 1984
Elevation:365 ft (111 m)
Runways:1
Longest:11811 × 197 ft (3600 × 60 m), paved

Time
Time Zone:UTC+6 (DST+7)

Weather
METAR:UNNT 241400Z 18004MPS CAVOK 11/M06 Q1013 25090070 16090070 NOSIG RMK QFE750/1000
TAF:UNNT 241045Z 2412/2512 20011G18MPS 9999 BKN030 530005

Related Locations
Nearby:
Farthest:PNT: 11390 mi / 18330 km
Puerto Natales [Teniente Julio Gallardo], MA, CL

Find:

   beyond  
but within

Other Information
Maps:
NOTAMs:
Links:
Sources:

  
flag of Russian Federation (Russia)
flag of Novosibirskaya
  

Sectional Chart

Flight Planning
at skyvector.com

Satellite Image

Google Maps Satellite View

 

Copyright © 2004-2014 Karl L. Swartz. All rights reserved.
The Great Circle Mapper name and logo are trademarks of the Great Circle Mapper.
All other trademarks mentioned herein belong to their respective owners.
Please see credits for attibutions and further copyright information.

  Follow gcmap on Facebook Follow gcmap on Twitter

hCard Microformat

Geo Microformat